Location: Conflandey
(47.7287°N, 6.0456°E)
Time: 20:44:07
(UTC+00:00)

CZ-2C R/B - Pass Details

Date: 24 October 2021
Orbit: 784 x 871 km, 98.2° (Epoch: 05 December)

Event Time Altitude Azimuth Distance (km) Brightness Sun altitude
Rises 16:58:55 0° 22° (NNE) 3,465 5.6 -5.4°
Reaches altitude 10° 17:01:38 10° 33° (NNE) 2,516 4.8 -5.8°
Maximum altitude 17:06:30 30° 93° (E) 1,499 3.5 -6.6°
Drops below altitude 10° 17:11:16 10° 154° (SSE) 2,462 5.0 -7.4°
Sets 17:13:53 0° 165° (SSE) 3,378 5.8 -7.8°
